VIV1193 MMMD-MUHA

Flight info

Callsign VIV1193
Flight time 1h 27m
Altitude 33000
Route PERG2C MID UA770 MESNA UR522 NAKRO VETSI1
Aircraft A20N/M-SDE2E3FGHIRWXY/LB1

Departure

Time 2026-05-03 22:30
Airport Manuel Crescencio Rejón International Airport (MMMD)

Arrival

Time 2026-05-03 23:58
Airport José Martí International Airport (MUHA)
Time Latitude Longitude Altitude Speed Heading
2026-05-03 21:40 20.93405 -89.66196 44 ft 0 kts 271°
2026-05-03 22:17 20.93405 -89.66179 44 ft 3 kts 271°
2026-05-03 22:17 20.93404 -89.66159 44 ft 3 kts 271°
2026-05-03 22:17 20.93404 -89.66139 44 ft 3 kts 271°
2026-05-03 22:17 20.93403 -89.66119 44 ft 3 kts 271°
2026-05-03 22:18 20.93403 -89.66099 44 ft 3 kts 261°
2026-05-03 22:18 20.93408 -89.66082 42 ft 0 kts 224°
2026-05-03 22:22 20.93406 -89.66084 42 ft 2 kts 224°
2026-05-03 22:22 20.93377 -89.66100 44 ft 7 kts 190°
2026-05-03 22:22 20.93314 -89.66103 44 ft 11 kts 181°
2026-05-03 22:22 20.93279 -89.66104 42 ft 4 kts 181°
2026-05-03 22:23 20.93227 -89.66082 44 ft 10 kts 119°
2026-05-03 22:23 20.93212 -89.66000 42 ft 12 kts 110°
2026-05-03 22:23 20.93145 -89.65941 44 ft 14 kts 150°
2026-05-03 22:23 20.93066 -89.65894 44 ft 12 kts 152°
2026-05-03 22:24 20.93028 -89.65873 43 ft 0 kts 153°
2026-05-03 22:24 20.93018 -89.65867 43 ft 5 kts 153°
2026-05-03 22:24 20.92972 -89.65843 43 ft 9 kts 153°
2026-05-03 22:25 20.92912 -89.65806 43 ft 3 kts 148°
2026-05-03 22:25 20.92881 -89.65793 43 ft 8 kts 166°
2026-05-03 22:25 20.92807 -89.65789 43 ft 13 kts 183°
2026-05-03 22:25 20.92704 -89.65791 43 ft 16 kts 181°
2026-05-03 22:26 20.92580 -89.65792 43 ft 19 kts 180°
2026-05-03 22:26 20.92437 -89.65794 43 ft 22 kts 181°
2026-05-03 22:26 20.92291 -89.65799 44 ft 20 kts 181°
2026-05-03 22:26 20.92154 -89.65800 44 ft 17 kts 177°
2026-05-03 22:27 20.92053 -89.65755 45 ft 15 kts 157°
2026-05-03 22:27 20.92009 -89.65778 45 ft 8 kts 256°
2026-05-03 22:27 20.92027 -89.65800 43 ft 4 kts 349°
2026-05-03 22:27 20.92030 -89.65800 44 ft 0 kts 352°
2026-05-03 22:29 20.92039 -89.65802 45 ft 10 kts 353°
2026-05-03 22:29 20.92418 -89.65793 43 ft 95 kts
2026-05-03 22:30 20.93274 -89.65774 55 ft 147 kts
2026-05-03 22:30 20.94335 -89.65756 508 ft 156 kts
2026-05-03 22:30 20.95411 -89.65687 1228 ft 149 kts
2026-05-03 22:30 20.96415 -89.65536 1952 ft 147 kts
2026-05-03 22:31 20.97489 -89.65408 2370 ft 165 kts
2026-05-03 22:31 20.98713 -89.65333 2802 ft 186 kts
2026-05-03 22:31 21.00097 -89.65306 3217 ft 212 kts 359°
2026-05-03 22:31 21.01650 -89.65302 3691 ft 235 kts 359°
2026-05-03 22:32 21.03365 -89.65305 4234 ft 257 kts 359°
2026-05-03 22:32 21.04573 -89.65307 4710 ft 266 kts 359°
2026-05-03 22:32 21.06438 -89.65307 5604 ft 270 kts 358°
2026-05-03 22:32 21.08325 -89.65304 6521 ft 273 kts 358°
2026-05-03 22:33 21.10844 -89.65633 7628 ft 279 kts 342°
2026-05-03 22:33 21.12067 -89.66140 8186 ft 280 kts 332°
2026-05-03 22:33 21.13816 -89.67137 8719 ft 288 kts 330°
2026-05-03 22:33 21.15581 -89.68151 8919 ft 286 kts 330°
2026-05-03 22:34 21.17340 -89.69144 9003 ft 286 kts 333°
2026-05-03 22:34 21.19213 -89.69901 9073 ft 290 kts 343°
2026-05-03 22:34 21.21211 -89.70308 9615 ft 294 kts 350°
2026-05-03 22:34 21.23237 -89.70638 10448 ft 298 kts 349°
2026-05-03 22:35 21.25363 -89.71004 10762 ft 321 kts 349°
2026-05-03 22:35 21.27662 -89.71325 11027 ft 344 kts 355°
2026-05-03 22:35 21.30081 -89.71334 11670 ft 351 kts 359°
2026-05-03 22:35 21.32536 -89.71307 12426 ft 355 kts 359°
2026-05-03 22:36 21.35021 -89.71288 13135 ft 359 kts 358°
2026-05-03 22:36 21.37537 -89.71271 13845 ft 364 kts 358°
2026-05-03 22:36 21.40083 -89.71253 14473 ft 368 kts 358°
2026-05-03 22:36 21.42657 -89.71233 15097 ft 372 kts 358°
2026-05-03 22:37 21.45227 -89.71213 15696 ft 376 kts 358°
2026-05-03 22:37 21.47893 -89.71192 16299 ft 381 kts 358°
2026-05-03 22:37 21.50523 -89.71171 16896 ft 385 kts 358°
2026-05-03 22:37 21.53250 -89.71148 17499 ft 389 kts 357°
2026-05-03 22:38 21.55935 -89.71127 18065 ft 393 kts 357°
2026-05-03 22:38 21.58681 -89.71104 18597 ft 397 kts 357°
2026-05-03 22:38 21.61486 -89.71081 19171 ft 398 kts 357°
2026-05-03 22:38 21.64230 -89.71059 19667 ft 401 kts 357°
2026-05-03 22:39 21.67027 -89.71036 19894 ft 403 kts 356°
2026-05-03 22:39 21.69828 -89.71013 19984 ft 403 kts 356°
2026-05-03 22:39 21.72652 -89.70991 20303 ft 407 kts 356°
2026-05-03 22:39 21.75482 -89.70968 20933 ft 407 kts 356°
2026-05-03 22:40 21.78319 -89.70945 21476 ft 409 kts 356°
2026-05-03 22:40 21.81181 -89.70923 21991 ft 412 kts 356°
2026-05-03 22:40 21.84058 -89.70900 22520 ft 415 kts 356°
2026-05-03 22:40 21.86954 -89.70733 23021 ft 422 kts
2026-05-03 22:41 21.89807 -89.69842 23520 ft 433 kts 20°
2026-05-03 22:41 21.92434 -89.68189 23923 ft 443 kts 34°
2026-05-03 22:41 21.94670 -89.65864 24308 ft 453 kts 49°
2026-05-03 22:41 21.96379 -89.62990 24696 ft 460 kts 63°
2026-05-03 22:42 21.97456 -89.59728 25064 ft 466 kts 77°
2026-05-03 22:42 21.97910 -89.56257 25447 ft 470 kts 85°
2026-05-03 22:42 21.98154 -89.52736 25833 ft 473 kts 85°
2026-05-03 22:42 21.98452 -89.49200 26218 ft 475 kts 84°
2026-05-03 22:43 21.98850 -89.45659 26583 ft 478 kts 82°
2026-05-03 22:43 21.99321 -89.42098 26937 ft 481 kts 81°
2026-05-03 22:43 21.99832 -89.38525 27305 ft 484 kts 81°
2026-05-03 22:43 22.00359 -89.34937 27657 ft 487 kts 81°
2026-05-03 22:44 22.00894 -89.31326 28002 ft 489 kts 81°
2026-05-03 22:44 22.01430 -89.27697 28344 ft 492 kts 81°
2026-05-03 22:44 22.01968 -89.24049 28686 ft 494 kts 81°
2026-05-03 22:44 22.02506 -89.20376 29014 ft 497 kts 81°
2026-05-03 22:45 22.03046 -89.16690 29333 ft 500 kts 81°
2026-05-03 22:45 22.03587 -89.12980 29656 ft 502 kts 81°
2026-05-03 22:45 22.04130 -89.09254 29986 ft 505 kts 81°
2026-05-03 22:45 22.04669 -89.05557 30269 ft 507 kts 81°
2026-05-03 22:46 22.05216 -89.01803 30571 ft 509 kts 81°
2026-05-03 22:46 22.05767 -88.98024 30880 ft 510 kts 81°
2026-05-03 22:46 22.06317 -88.94241 31213 ft 512 kts 81°
2026-05-03 22:46 22.06866 -88.90453 31605 ft 511 kts 81°
2026-05-03 22:47 22.07414 -88.86672 32011 ft 510 kts 81°
2026-05-03 22:47 22.07959 -88.82897 32419 ft 509 kts 81°
2026-05-03 22:47 22.08503 -88.79129 32802 ft 508 kts 81°
2026-05-03 22:47 22.09043 -88.75373 32958 ft 507 kts 81°
2026-05-03 22:48 22.09583 -88.71623 32981 ft 506 kts 81°
2026-05-03 22:48 22.10657 -88.64133 32984 ft 505 kts 81°
2026-05-03 22:49 22.11729 -88.56636 32981 ft 506 kts 81°
2026-05-03 22:49 22.12797 -88.49140 32983 ft 506 kts 81°
2026-05-03 22:50 22.13861 -88.41643 32981 ft 506 kts 81°
2026-05-03 22:50 22.14924 -88.34134 32987 ft 506 kts 81°
2026-05-03 22:51 22.15983 -88.26622 32990 ft 507 kts 81°
2026-05-03 22:51 22.17039 -88.19101 32994 ft 507 kts 81°
2026-05-03 22:52 22.18094 -88.11575 32995 ft 507 kts 81°
2026-05-03 22:52 22.19139 -88.04048 32993 ft 507 kts 81°
2026-05-03 22:53 22.20178 -87.96521 32996 ft 507 kts 81°
2026-05-03 22:53 22.21215 -87.88993 32992 ft 507 kts 81°
2026-05-03 22:54 22.22248 -87.81466 32991 ft 507 kts 81°
2026-05-03 22:54 22.23278 -87.73935 32996 ft 507 kts 81°
2026-05-03 22:55 22.24304 -87.66413 32992 ft 507 kts 81°
2026-05-03 22:55 22.25330 -87.58893 32991 ft 506 kts 81°
2026-05-03 22:56 22.26353 -87.51423 32987 ft 506 kts 81°
2026-05-03 22:56 22.27377 -87.43909 32989 ft 506 kts 81°
2026-05-03 22:57 22.28396 -87.36395 32988 ft 506 kts 81°
2026-05-03 22:57 22.29409 -87.28880 32987 ft 506 kts 81°
2026-05-03 22:58 22.30414 -87.21361 32991 ft 506 kts 81°
2026-05-03 22:58 22.31414 -87.13853 32992 ft 505 kts 81°
2026-05-03 22:59 22.32411 -87.06339 32992 ft 505 kts 81°
2026-05-03 22:59 22.33405 -86.98826 32995 ft 505 kts 81°
2026-05-03 23:00 22.34395 -86.91318 32994 ft 505 kts 81°
2026-05-03 23:00 22.35381 -86.83812 32994 ft 505 kts 81°
2026-05-03 23:01 22.36363 -86.76308 32995 ft 505 kts 81°
2026-05-03 23:01 22.37342 -86.68798 32994 ft 504 kts 81°
2026-05-03 23:02 22.38316 -86.61295 32992 ft 504 kts 81°
2026-05-03 23:02 22.39288 -86.53796 32992 ft 504 kts 81°
2026-05-03 23:03 22.40307 -86.46304 32994 ft 504 kts 80°
2026-05-03 23:03 22.41339 -86.38822 32997 ft 504 kts 81°
2026-05-03 23:04 22.42362 -86.31331 32999 ft 504 kts 81°
2026-05-03 23:04 22.43378 -86.23835 32994 ft 504 kts 81°
2026-05-03 23:05 22.44391 -86.16337 32999 ft 504 kts 81°
2026-05-03 23:05 22.45402 -86.08832 32998 ft 505 kts 81°
2026-05-03 23:06 22.46410 -86.01320 33004 ft 505 kts 81°
2026-05-03 23:06 22.47484 -85.93870 33000 ft 505 kts 79°
2026-05-03 23:07 22.48655 -85.86389 33004 ft 505 kts 79°
2026-05-03 23:07 22.49809 -85.78899 33005 ft 505 kts 79°
2026-05-03 23:08 22.50948 -85.71401 33007 ft 505 kts 79°
2026-05-03 23:08 22.52082 -85.63905 33003 ft 505 kts 79°
2026-05-03 23:09 22.53213 -85.56402 33003 ft 505 kts 80°
2026-05-03 23:09 22.54342 -85.48893 33001 ft 506 kts 80°
2026-05-03 23:10 22.55469 -85.41380 33002 ft 506 kts 80°
2026-05-03 23:10 22.56593 -85.33863 33000 ft 506 kts 80°
2026-05-03 23:11 22.57714 -85.26342 33001 ft 506 kts 80°
2026-05-03 23:11 22.58831 -85.18818 32998 ft 507 kts 80°
2026-05-03 23:12 22.59946 -85.11290 33002 ft 507 kts 80°
2026-05-03 23:12 22.61058 -85.03750 33000 ft 507 kts 80°
2026-05-03 23:13 22.62161 -84.96210 33002 ft 508 kts 80°
2026-05-03 23:13 22.63261 -84.88660 33005 ft 508 kts 80°
2026-05-03 23:14 22.64359 -84.81107 33007 ft 508 kts 80°
2026-05-03 23:14 22.65454 -84.73545 33008 ft 508 kts 80°
2026-05-03 23:15 22.66546 -84.65983 33012 ft 509 kts 81°
2026-05-03 23:15 22.67635 -84.58415 33008 ft 509 kts 81°
2026-05-03 23:16 22.68720 -84.50844 33009 ft 509 kts 81°
2026-05-03 23:16 22.69802 -84.43270 33008 ft 509 kts 81°
2026-05-03 23:17 22.70874 -84.35745 32971 ft 507 kts 81°
2026-05-03 23:17 22.71408 -84.31983 32601 ft 505 kts 81°
2026-05-03 23:17 22.71942 -84.28228 31981 ft 504 kts 81°
2026-05-03 23:17 22.72476 -84.24467 31251 ft 505 kts 81°
2026-05-03 23:18 22.73009 -84.20710 30491 ft 505 kts 81°
2026-05-03 23:18 22.73541 -84.16951 29812 ft 503 kts 82°
2026-05-03 23:18 22.74066 -84.13228 29216 ft 497 kts 82°
2026-05-03 23:18 22.74601 -84.09547 28604 ft 492 kts 81°
2026-05-03 23:19 22.75148 -84.05904 27993 ft 488 kts 81°
2026-05-03 23:19 22.75692 -84.02300 27403 ft 483 kts 81°
2026-05-03 23:19 22.76229 -83.98723 26819 ft 479 kts 81°
2026-05-03 23:19 22.76759 -83.95179 26254 ft 474 kts 81°
2026-05-03 23:20 22.77281 -83.91671 25696 ft 470 kts 81°
2026-05-03 23:20 22.77797 -83.88188 25230 ft 464 kts 81°
2026-05-03 23:20 22.78304 -83.84760 25048 ft 461 kts 81°
2026-05-03 23:20 22.78814 -83.81307 24891 ft 466 kts 81°
2026-05-03 23:21 22.79325 -83.77841 24731 ft 464 kts 81°
2026-05-03 23:21 22.79662 -83.75556 24622 ft 463 kts 81°
2026-05-03 23:21 22.80168 -83.72115 24472 ft 462 kts 81°
2026-05-03 23:21 22.80672 -83.68681 24317 ft 461 kts 81°
2026-05-03 23:22 22.81670 -83.61870 23631 ft 455 kts 81°
2026-05-03 23:22 22.82162 -83.58504 23063 ft 451 kts 81°
2026-05-03 23:22 22.82650 -83.55164 22498 ft 446 kts 81°
2026-05-03 23:23 22.83132 -83.51858 21936 ft 442 kts 81°
2026-05-03 23:23 22.83608 -83.48583 21387 ft 438 kts 81°
2026-05-03 23:23 22.84079 -83.45341 20843 ft 433 kts 81°
2026-05-03 23:23 22.84546 -83.42130 20313 ft 429 kts 81°
2026-05-03 23:24 22.85007 -83.38950 19799 ft 425 kts 82°
2026-05-03 23:24 22.85460 -83.35795 19289 ft 421 kts 83°
2026-05-03 23:24 22.85521 -83.32650 18774 ft 415 kts 98°
2026-05-03 23:24 22.84887 -83.29634 18270 ft 407 kts 112°
2026-05-03 23:25 22.83723 -83.26868 17725 ft 401 kts 118°
2026-05-03 23:25 22.82513 -83.24162 17251 ft 396 kts 118°
2026-05-03 23:25 22.81328 -83.21497 17085 ft 392 kts 118°
2026-05-03 23:25 22.80134 -83.18813 17045 ft 397 kts 118°
2026-05-03 23:26 22.78940 -83.16127 16955 ft 394 kts 118°
2026-05-03 23:26 22.77754 -83.13460 16611 ft 391 kts 118°
2026-05-03 23:26 22.76576 -83.10809 16144 ft 389 kts 118°
2026-05-03 23:26 22.75444 -83.08165 15623 ft 387 kts 112°
2026-05-03 23:27 22.74899 -83.05324 15141 ft 386 kts 93°
2026-05-03 23:27 22.75195 -83.02461 14639 ft 383 kts 75°
2026-05-03 23:27 22.75951 -82.99745 14160 ft 380 kts 73°
2026-05-03 23:27 22.76738 -82.96985 13683 ft 376 kts 73°
2026-05-03 23:28 22.77504 -82.94288 13165 ft 373 kts 73°
2026-05-03 23:28 22.78258 -82.91612 12640 ft 370 kts 73°
2026-05-03 23:28 22.78993 -82.88995 12148 ft 366 kts 73°
2026-05-03 23:28 22.79728 -82.86368 11657 ft 363 kts 73°
2026-05-03 23:29 22.80456 -82.83761 11214 ft 359 kts 73°
2026-05-03 23:29 22.81175 -82.81184 11044 ft 359 kts 73°
2026-05-03 23:29 22.81898 -82.78591 10992 ft 360 kts 73°
2026-05-03 23:29 22.82620 -82.75998 10988 ft 359 kts 73°
2026-05-03 23:30 22.83339 -82.73414 10891 ft 357 kts 73°
2026-05-03 23:30 22.84054 -82.70845 10559 ft 355 kts 73°
2026-05-03 23:30 22.84758 -82.68310 10368 ft 344 kts 73°
2026-05-03 23:30 22.85434 -82.65876 10245 ft 331 kts 73°
2026-05-03 23:31 22.86083 -82.63537 10148 ft 317 kts 73°
2026-05-03 23:31 22.86707 -82.61287 9977 ft 307 kts 73°
2026-05-03 23:31 22.87330 -82.59085 9613 ft 304 kts 70°
2026-05-03 23:31 22.88222 -82.57033 9225 ft 301 kts 58°
2026-05-03 23:32 22.89419 -82.55210 9058 ft 290 kts 52°
2026-05-03 23:32 22.90587 -82.53478 8953 ft 279 kts 53°
2026-05-03 23:32 22.91702 -82.51800 8763 ft 271 kts 53°
2026-05-03 23:32 22.92796 -82.50147 8512 ft 269 kts 53°
2026-05-03 23:33 22.93892 -82.48495 8266 ft 269 kts 53°
2026-05-03 23:33 22.94981 -82.46854 8029 ft 267 kts 53°
2026-05-03 23:33 22.96065 -82.45223 7782 ft 267 kts 53°
2026-05-03 23:33 22.97149 -82.43591 7539 ft 266 kts 53°
2026-05-03 23:34 22.98226 -82.41962 7300 ft 264 kts 55°
2026-05-03 23:34 22.99194 -82.40271 7066 ft 264 kts 60°
2026-05-03 23:34 23.00093 -82.38520 6840 ft 266 kts 61°
2026-05-03 23:34 23.00983 -82.36760 6605 ft 264 kts 61°
2026-05-03 23:35 23.01875 -82.35022 6369 ft 263 kts 60°
2026-05-03 23:35 23.02777 -82.33296 6121 ft 263 kts 60°
2026-05-03 23:35 23.03680 -82.31585 5875 ft 262 kts 60°
2026-05-03 23:35 23.04590 -82.29870 5628 ft 261 kts 60°
2026-05-03 23:36 23.05494 -82.28170 5386 ft 260 kts 60°
2026-05-03 23:36 23.06399 -82.26471 5144 ft 261 kts 60°
2026-05-03 23:36 23.07305 -82.24768 4900 ft 259 kts 60°
2026-05-03 23:36 23.08201 -82.23083 4656 ft 256 kts 60°
2026-05-03 23:37 23.09094 -82.21406 4404 ft 258 kts 60°
2026-05-03 23:37 23.09977 -82.19748 4156 ft 256 kts 60°
2026-05-03 23:37 23.10863 -82.18083 3907 ft 253 kts 60°
2026-05-03 23:37 23.11717 -82.16403 3666 ft 254 kts 70°
2026-05-03 23:38 23.11962 -82.14554 3422 ft 246 kts 100°
2026-05-03 23:38 23.11346 -82.12877 3163 ft 238 kts 131°
2026-05-03 23:38 23.10065 -82.11834 3022 ft 232 kts 161°
2026-05-03 23:38 23.08477 -82.11541 2987 ft 232 kts 185°
2026-05-03 23:39 23.06920 -82.11908 2988 ft 230 kts 197°
2026-05-03 23:39 23.05370 -82.12365 2990 ft 230 kts 195°
2026-05-03 23:39 23.03816 -82.12793 3009 ft 237 kts 195°
2026-05-03 23:39 23.02121 -82.13252 2996 ft 257 kts 195°
2026-05-03 23:40 23.00379 -82.13717 2998 ft 256 kts 195°
2026-05-03 23:40 22.98643 -82.14180 3003 ft 257 kts 195°
2026-05-03 23:40 22.96905 -82.14644 3004 ft 258 kts 195°
2026-05-03 23:40 22.95172 -82.15109 2997 ft 257 kts 195°
2026-05-03 23:41 22.93435 -82.15574 3006 ft 257 kts 194°
2026-05-03 23:41 22.91697 -82.16039 2998 ft 258 kts 195°
2026-05-03 23:41 22.89960 -82.16505 3006 ft 259 kts 195°
2026-05-03 23:41 22.88214 -82.16972 2997 ft 260 kts 195°
2026-05-03 23:42 22.86461 -82.17441 3007 ft 259 kts 195°
2026-05-03 23:42 22.84713 -82.17910 3008 ft 258 kts 195°
2026-05-03 23:42 22.82967 -82.18378 3010 ft 259 kts 195°
2026-05-03 23:42 22.81222 -82.18847 3005 ft 258 kts 194°
2026-05-03 23:43 22.79476 -82.19315 3002 ft 259 kts 195°
2026-05-03 23:43 22.77727 -82.19783 3002 ft 259 kts 195°
2026-05-03 23:43 22.75982 -82.20250 2989 ft 257 kts 195°
2026-05-03 23:43 22.74241 -82.20717 3002 ft 258 kts 195°
2026-05-03 23:44 22.72497 -82.21184 2988 ft 258 kts 194°
2026-05-03 23:44 22.70756 -82.21651 2991 ft 259 kts 194°
2026-05-03 23:44 22.69026 -82.22114 2992 ft 259 kts 195°
2026-05-03 23:44 22.67256 -82.22586 2988 ft 259 kts 193°
2026-05-03 23:45 22.65488 -82.22661 2986 ft 261 kts 171°
2026-05-03 23:45 22.63789 -82.21959 2994 ft 264 kts 155°
2026-05-03 23:45 22.62151 -82.21090 2986 ft 261 kts 155°
2026-05-03 23:45 22.60511 -82.20215 2984 ft 263 kts 155°
2026-05-03 23:46 22.58868 -82.19340 2983 ft 264 kts 155°
2026-05-03 23:46 22.57238 -82.18432 2974 ft 264 kts 147°
2026-05-03 23:46 22.56003 -82.16980 2991 ft 266 kts 119°
2026-05-03 23:46 22.55538 -82.15049 2989 ft 271 kts 91°
2026-05-03 23:47 22.55962 -82.13056 2987 ft 275 kts 63°
2026-05-03 23:47 22.57188 -82.11492 2981 ft 276 kts 35°
2026-05-03 23:47 22.58941 -82.10708 2988 ft 274 kts
2026-05-03 23:47 22.60815 -82.10885 2983 ft 272 kts 338°
2026-05-03 23:48 22.62376 -82.11974 2986 ft 268 kts 310°
2026-05-03 23:48 22.63335 -82.13667 2994 ft 264 kts 291°
2026-05-03 23:48 22.64005 -82.15525 2990 ft 264 kts 287°
2026-05-03 23:48 22.64644 -82.17387 2979 ft 264 kts 294°
2026-05-03 23:49 22.65544 -82.19124 2989 ft 265 kts 300°
2026-05-03 23:49 22.66548 -82.20801 2986 ft 265 kts 301°
2026-05-03 23:49 22.67565 -82.22476 2995 ft 266 kts 301°
2026-05-03 23:49 22.68564 -82.24158 2992 ft 265 kts 300°
2026-05-03 23:50 22.69545 -82.25848 2991 ft 265 kts 300°
2026-05-03 23:50 22.70190 -82.26969 2994 ft 265 kts 300°
2026-05-03 23:50 22.71480 -82.29233 2999 ft 264 kts 299°
2026-05-03 23:50 22.72441 -82.30927 2996 ft 264 kts 299°
2026-05-03 23:51 22.73403 -82.32624 3007 ft 264 kts 299°
2026-05-03 23:51 22.74363 -82.34319 3005 ft 264 kts 299°
2026-05-03 23:51 22.75324 -82.36015 3001 ft 264 kts 299°
2026-05-03 23:51 22.76286 -82.37713 3003 ft 264 kts 300°
2026-05-03 23:52 22.77248 -82.39410 3017 ft 264 kts 300°
2026-05-03 23:52 22.78210 -82.41109 3011 ft 265 kts 299°
2026-05-03 23:52 22.79170 -82.42808 3011 ft 265 kts 300°
2026-05-03 23:52 22.80133 -82.44511 3011 ft 265 kts 300°
2026-05-03 23:53 22.81094 -82.46208 3014 ft 264 kts 299°
2026-05-03 23:53 22.82056 -82.47912 3017 ft 265 kts 300°
2026-05-03 23:53 22.83014 -82.49613 2955 ft 264 kts 300°
2026-05-03 23:53 22.83971 -82.51310 2643 ft 264 kts 300°
2026-05-03 23:54 22.84926 -82.52999 2293 ft 264 kts 300°
2026-05-03 23:54 22.86027 -82.54569 2266 ft 268 kts 319°
2026-05-03 23:54 22.87722 -82.55392 2326 ft 273 kts 353°
2026-05-03 23:54 22.89559 -82.55068 2267 ft 269 kts 27°
2026-05-03 23:55 22.90896 -82.53716 2219 ft 259 kts 58°
2026-05-03 23:55 22.91752 -82.52096 2217 ft 236 kts 61°
2026-05-03 23:55 22.92575 -82.50615 1999 ft 225 kts 58°
2026-05-03 23:55 22.93428 -82.49237 1705 ft 212 kts 56°
2026-05-03 23:56 22.94241 -82.47997 1451 ft 193 kts 55°
2026-05-03 23:56 22.94984 -82.46870 1199 ft 174 kts 55°
2026-05-03 23:56 22.95647 -82.45866 998 ft 154 kts 54°
2026-05-03 23:56 22.96237 -82.44972 793 ft 139 kts 53°
2026-05-03 23:57 22.96789 -82.44137 602 ft 137 kts 52°
2026-05-03 23:57 22.97338 -82.43305 421 ft 135 kts 51°
2026-05-03 23:57 22.97875 -82.42488 286 ft 128 kts 52°
2026-05-03 23:57 22.98365 -82.41750 222 ft 109 kts 51°
2026-05-03 23:58 22.98634 -82.41350 220 ft 22 kts 53°
2026-05-03 23:58 22.98673 -82.41292 220 ft 20 kts 57°
2026-05-03 23:58 22.98759 -82.41155 223 ft 24 kts 54°
2026-05-03 23:58 22.98896 -82.41087 218 ft 23 kts 10°
2026-05-03 23:59 22.99042 -82.41028 219 ft 22 kts 52°
2026-05-03 23:59 22.99135 -82.40895 222 ft 21 kts 54°
2026-05-03 23:59 22.99218 -82.40770 218 ft 21 kts 53°
2026-05-03 23:59 22.99310 -82.40635 220 ft 23 kts 53°
2026-05-04 00:00 22.99399 -82.40490 219 ft 16 kts 53°
2026-05-04 00:00 22.99487 -82.40413 219 ft 16 kts
2026-05-04 00:00 22.99566 -82.40464 224 ft 14 kts 326°
2026-05-04 00:00 22.99615 -82.40529 219 ft 7 kts 268°
2026-05-04 00:01 22.99597 -82.40574 221 ft 6 kts 237°
2026-05-04 00:01 22.99573 -82.40611 219 ft 8 kts 234°
2026-05-04 00:01 22.99540 -82.40665 223 ft 8 kts 245°
2026-05-04 00:01 22.99540 -82.40722 219 ft 6 kts 290°
2026-05-04 00:02 22.99557 -82.40733 222 ft 1 kts 358°
2026-05-04 00:02 22.99592 -82.40719 219 ft 5 kts 25°
2026-05-04 00:02 22.99602 -82.40713 219 ft 0 kts 36°